This demonstration page uses our WeatherBlox Daily Observations layout. Learn more.

Left ArrowRight Arrow

34.16533, -84.80231

Hourly Observations for July 6, 2017

Temp ( °F °C ) Dew Point ( °F °C ) Humidity (%) Winds ( mph kmh ) Pressure ( in mb ) Visibility ( mi km ) Precip ( " mm )
12:53 am 00:53 Clear 69 20.6 69 20.6 100 100 Calm 30.11 1020 10 16 0.00 0.00
1:53 am 01:53 Clear 69 20.6 69 20.6 100 100 Calm 30.11 1020 10 16 0.00 0.00
2:53 am 02:53 Clear 68 20 68 20 100 100 Calm 30.09 1019 10 16 0.00 0.00
3:53 am 03:53 Clear 67 19.4 67 19.4 100 100 Calm 30.09 1019 10 16 0.00 0.00
4:53 am 04:53 Clear 68 20 68 20 100 100 Calm 30.09 1019 10 16 0.00 0.00
5:53 am 05:53 Mostly Cloudy 68 20 68 20 100 100 Calm 30.09 1019 10 16 0.00 0.00
6:36 am 06:36 Partly Cloudy with Nearby Thunderstorms 68 20 68 20 100 100 Calm 30.12 1020 10 16 0.00 0.00
6:51 am 06:51 Sunny 66 19 66 19 100 100 Calm 30.12 1020 10 16 0.00 0.00
6:53 am 06:53 Sunny 67 19.4 67 19.4 100 100 Calm 30.11 1020 10 16 0.00 0.00
7:53 am 07:53 Sunny 69 20.6 69 20.6 100 100 Calm 30.12 1020 10 16 0.00 0.00
8:53 am 08:53 Sunny 77 25 72 22.2 85 85 Calm 30.14 1021 10 16 0.00 0.00
9:53 am 09:53 Sunny 80 26.7 74 23.3 82 82 Calm 30.14 1021 10 16 0.00 0.00
10:53 am 10:53 Mostly Cloudy 82 27.8 76 24.4 82 82 SSW 6 9 30.13 1020 10 16 0.00 0.00
11:13 am 11:13 Partly Cloudy 83 28.3 76 24.4 79 79 Calm 30.12 1020 10 16 0.00 0.00
11:21 am 11:21 Mostly Cloudy 82 27.8 76 24.4 82 82 Calm 30.12 1020 10 16 0.00 0.00
11:53 am 11:53 Mostly Cloudy 84 28.9 77 25 80 80 Calm 30.13 1020 10 16 0.00 0.00
12:15 pm 12:15 Mostly Cloudy with Nearby Thunderstorms 85 29.4 78 25.6 80 80 Calm 30.09 1019 10 16 0.00 0.00
12:29 pm 12:29 Mostly Cloudy with Thunderstorms 84 28.9 77 25 80 80 VRB 6 9 30.12 1020 9 14 0.00 0.00
12:43 pm 12:43 Cloudy with Thunderstorms 75 23.9 74 23.3 96 96 S 8 13 30.12 1020 3 4 0.08 2.03
12:51 pm 12:51 Mostly Cloudy with Thunderstorms 75 24 73 23 94 94 Calm 30.12 1020 10 16 0.08 2.03
12:53 pm 12:53 Mostly Cloudy with Thunderstorms 75 23.9 74 23.3 96 96 SSW 3 6 30.12 1020 10 16 0.08 2.03
1:05 pm 13:05 Partly Cloudy with Nearby Thunderstorms 75 23.9 74 23.3 96 96 SSW 3 6 30.12 1020 10 16 0.00 0.00
1:15 pm 13:15 Sunny 79 26.1 75 23.9 88 88 SSW 3 6 30.09 1019 10 16 0.00 0.00
1:23 pm 13:23 Sunny with Nearby Thunderstorms 81 27.2 76 24.4 85 85 VRB 3 6 30.09 1019 10 16 0.00 0.00
1:38 pm 13:38 Sunny 83 28.3 76 24.4 79 79 VRB 3 6 30.09 1019 10 16 0.00 0.00
1:53 pm 13:53 Sunny 84 28.9 76 24.4 77 77 VRB 5 7 30.10 1019 10 16 0.00 0.00
2:53 pm 14:53 Sunny 86 30 76 24.4 72 72 Calm 30.06 1018 10 16 0.00 0.00
3:05 pm 15:05 Mostly Cloudy with Nearby Thunderstorms 83 28.3 79 26.1 88 88 Calm 30.06 1018 4 6 0.03 0.76
3:12 pm 15:12 Mostly Cloudy with Strong Thunderstorms 81 27.2 80 26.7 97 97 NNE 9 15 30.03 1017 3 4 0.14 3.56
3:23 pm 15:23 Cloudy with Thunderstorms 76 24.4 74 23.3 94 94 VRB 3 6 30.09 1019 9 14 0.14 3.56
3:26 pm 15:26 Cloudy with Thunderstorms 75 23.9 73 22.8 94 94 VRB 5 7 30.12 1020 1 2 0.24 6.10
3:30 pm 15:30 Cloudy with Strong Thunderstorms 72 22.2 72 22.2 100 100 W 3 6 30.12 1020 1 1 0.40 10.16
3:33 pm 15:33 Cloudy with Strong Thunderstorms 72 22.2 72 22.2 100 100 Calm 30.12 1020 0 0 0.53 13.46
3:43 pm 15:43 Cloudy with Thunderstorms 73 22.8 73 22.8 100 100 N 6 9 30.12 1020 2 2 0.57 14.48
3:45 pm 15:45 Cloudy with Thunderstorms 73 22.8 73 22.8 100 100 N 6 9 30.12 1020 3 4 0.58 14.73
3:51 pm 15:51 Cloudy with Thunderstorms 73 23 73 23 100 100 ENE 5 7 30.09 1019 5 8 0.58 14.73
3:52 pm 15:52 Cloudy with Thunderstorms 73 22.8 73 22.8 100 100 ENE 3 6 30.10 1019 5 8 0.58 14.73
4:11 pm 16:11 Mostly Cloudy with Nearby Thunderstorms 73 22.8 73 22.8 100 100 Calm 30.09 1019 10 16 0.00 0.03
4:32 pm 16:32 Sunny 74 23.3 74 23.3 100 100 VRB 3 6 30.09 1019 10 16 0.00 0.03
4:53 pm 16:53 Sunny 75 23.9 75 23.9 100 100 VRB 3 6 30.08 1019 10 16 0.00 0.03
5:53 pm 17:53 Sunny 79 26.1 75 23.9 88 88 Calm 30.06 1018 10 16 0.00 0.00
6:42 pm 18:42 Mostly Cloudy with Nearby Thunderstorms 77 25 77 25 100 100 VRB 5 7 30.06 1018 10 16 0.00 0.00
6:53 pm 18:53 Mostly Cloudy with Nearby Thunderstorms 77 25 75 23.9 94 94 S 6 9 30.04 1017 10 16 0.00 0.03
7:31 pm 19:31 Partly Cloudy with Thunderstorms 73 22.8 70 21.1 90 90 Calm 30.06 1018 10 16 0.00 0.03
7:46 pm 19:46 Partly Cloudy with Light Rain 72 22.2 70 21.1 94 94 Calm 30.06 1018 10 16 0.00 0.03
7:53 pm 19:53 Partly Cloudy with Light Rain 72 22.2 71 21.7 97 97 SSE 3 6 30.05 1018 10 16 0.00 0.03
8:53 pm 20:53 Sunny 71 21.7 71 21.7 100 100 S 3 6 30.06 1018 10 16 0.01 0.25
9:53 pm 21:53 Clear 70 21.1 70 21.1 100 100 Calm 30.06 1018 10 16 0.00 0.00
10:53 pm 22:53 Clear 70 21.1 70 21.1 100 100 Calm 30.06 1018 10 16 0.00 0.00
11:53 pm 23:53 Clear 69 20.6 69 20.6 100 100 Calm 30.06 1018 10 16 0.00 0.00

Powered by AerisWeather